Regional Weather Roundup
Issued by NWS

Home | Current Version | Previous Version | Graphics & Text | Print | Product List | Glossary On
Versions: 1 2 3 4 5 6 7 8 9 10 11 12 13 14 15 16 17 18 19 20 21 22 23 24 25 26 27 28 29 30 31 32 33 34 35 36 37 38 39 40 41 42 43 44 45 46 47 48 49 50
000
ASUS44 KMEG 160700
RWRTN
TENNESSEE HOURLY STATE WEATHER ROUNDUP
NATIONAL WEATHER SERVICE MEMPHIS TN
100 AM CST TUE JAN 16 2018

TNZ002-004-019-021-049-052-054-088>092-160800-
WEST TENNESSEE

CITY           SKY/WX    TMP DP  RH WIND       PRES   REMARKS
MEMPHIS INTL   LGT SNOW  22  18  85 N18G25    30.53R FOG     WCI   7
NWS MEMPHIS      N/A     22 N/A N/A MISG        N/A
JACKSON        LGT SNOW  23  19  85 N14       30.52R FOG     WCI  11
DYERSBURG      LGT SNOW  18  12  79 N18       30.57R FOG     WCI   2
$$

TNZ008-025-027-028-033-062-065-066-160800-
NORTH MIDDLE TENNESSEE

CITY           SKY/WX    TMP DP  RH WIND       PRES   REMARKS
NASHVILLE      CLOUDY    24  16  71 N10       30.45S WCI  14
CLARKSVILLE    LGT SNOW  17  12  80 NW15      30.51R WCI   2
SMYRNA         CLOUDY    25  20  81 N14       30.46R WCI  13
CROSSVILLE     FAIR      28  23  81 N3        30.31S
$$

TNZ061-075-076-078-094-096-097-160800-
SOUTH MIDDLE TENNESSEE

CITY           SKY/WX    TMP DP  RH WIND       PRES   REMARKS
WINCHESTER       N/A     28  25  86 CALM      30.38R
$$

TNZ017-018-042-046-047-160800-
NORTHEAST TENNESSEE

CITY           SKY/WX    TMP DP  RH WIND       PRES   REMARKS
TRI CITIES     FAIR      22  21  96 CALM      30.33F
$$

TNZ012-013-036-069-073-074-160800-
CENTRAL EAST TENNESSEE

CITY           SKY/WX    TMP DP  RH WIND       PRES   REMARKS
KNOXVILLE      FAIR      26  21  81 CALM      30.33S
OAK RIDGE      FAIR      27  23  85 CALM      30.35F
$$

TNZ083-085-099-160800-
SOUTHEAST TENNESSEE

CITY           SKY/WX    TMP DP  RH WIND       PRES   REMARKS
CHATTANOOGA    FAIR      28  22  78 S3        30.36F
$$

SKY/WX REPORTED AS FAIR MEANS FEW OR NO CLOUDS BELOW
12 THOUSAND FEET.





USA.gov is the U.S. government's official web portal to all federal, state and local government web resources and services.